Location: Laas
(43.4693°N, 0.3073°E)
Time: 15:14:18
(UTC+00:00)

Cosmos 220 Rocket - Pass Details

Date: 25 October 2020
Orbit: 574 x 617 km, 74.0° (Epoch: 24 November)

Event Time Altitude Azimuth Distance (km) Brightness Sun altitude
Rises 18:42:11 0° 185° (S) 2,818 7.5 -19.3°
Reaches altitude 10° 18:44:25 10° 181° (S) 1,929 6.6 -19.7°
Enters shadow 18:48:13 49° 124° (SE) 782 4.2 -20.4°
